Weather in Lobaski

Russia / Republic of Mordovia     54°37′13″N   45°09′14″E
temp.,
°C
wind,
m/s
gust,
m/s
humid.,
%
clouds,
%
prec.,
mm/h
press.,
hPa
HPBL,
m
28 february, sun
sun2800:00−17nnw489680 0.0 1010156
03:00−19nw479766 0.0 1012144
06:00−20nnw36981 0.0 101298
09:00−19nw47951 0.0 1013214
12:00−15nw469137 0.0 1014349
15:00−13nw479060 0.0 1015432
18:00−17nnw349351 0.0 101645
21:00−18nnw239527 0.0 101921
1 march, mon
mon100:00−19nw239739 0.0 102020
03:00−20nw229937 0.0 102220
06:00−20wnw229921 0.0 102320
09:00−17wnw229520 0.0 102483
12:00−12w239125 0.0 1023242
15:00−9wsw369354 0.0 1022351
18:00−12sw459695 0.0 102087
21:00−8sw4109598 0.1 1018292
2 march, tue
tue200:00−5sw71293100 0.1 1014417
03:00−3wsw71495100 1.1 1010639
06:00−2wsw71595100 1.4 1006685
09:000wsw71298100 2.3 1003751
12:000wnw610100100 0.8 1001612
15:000nw5109099 1.0 1002759
18:00−1nw6128996 0.5 1002668
21:00−4wnw5119295 0.5 1004347
3 march, wed
wed300:00−4wnw5119598 0.1 1004356
03:00−3nw5109399 0.3 1004534
06:00−5nw5119498 0.2 1005421
09:00−4nw6119398 0.5 1006617
12:00−4nw71092100 0.3 1008750
15:00−4nw71195100 0.9 1009776
18:00−6nnw61290100 0.5 1011671
21:00−7nw41194100 0.6 1014402
4 march, thu
thu400:00−10wnw479691 0.0 1015128
03:00−12w469579 0.1 101596
06:00−11wsw499754 0.0 1015148
09:00−7wsw5129475 0.0 1013395
12:00−3wsw81490100 0.0 1010652
15:00−1wsw81586100 0.0 1008790
18:00−2wsw81688100 0.0 1006733
21:00−2wsw91788100 0.0 1005742